Zurück zum Katalog

SL-14 R/B

AktivPO
NORAD 22188·ROCKET BODY·🇷🇺 Russia

Gestartet Oct 20, 1992 von Plesetsk Cosmodrome

Loading…

Nächste Überflüge (nächste 24 Stunden)

TLE

AktuellSource: Space-Track

Epoche: Sep 14, 2026, 16:50 UTC

1 22188U 92068G   26257.70147758  .00000007  00000-0 -18118-4 0  9998
2 22188  82.5993  38.9446 0044320 280.1404  90.4321 12.54920267552835

Verfolge SL-14 R/B in Echtzeit mit AllMySat

Download on the App Store